Regional Weather Roundup
Issued by NWS

Home | Current Version | Previous Version | Graphics & Text | Print | Product List | Glossary On
Versions: 1 2 3 4 5 6 7 8 9 10 11 12 13 14 15 16 17 18 19 20 21 22 23 24 25 26 27 28 29 30 31 32 33 34 35 36 37 38 39 40 41 42 43 44 45 46 47 48 49 50
000
ASUS44 KMEG 312210
RWRTN
TENNESSEE HOURLY STATE WEATHER ROUNDUP
NATIONAL WEATHER SERVICE MEMPHIS TN
500 PM CDT FRI JUL 31 2015

TNZ002-004-019-021-049-052-054-088>092-312300-
WEST TENNESSEE

CITY           SKY/WX    TMP DP  RH WIND       PRES   REMARKS
MEMPHIS INTL   MOSUNNY   92  60  34 NE8       30.03F HX  91
NWS MEMPHIS      N/A     90 N/A N/A MISG        N/A
JACKSON        SUNNY     93  62  35 N13       30.03F HX  93
DYERSBURG        N/A    N/A N/A N/A MISG        N/A
PARIS          MOSUNNY   84  66  54 N5        30.05F
LEXINGTON      SUNNY     88  63  42 N6        30.02F
$$

TNZ008-025-027-028-033-062-065-066-312300-
NORTH MIDDLE TENNESSEE

CITY           SKY/WX    TMP DP  RH WIND       PRES   REMARKS
NASHVILLE      MOSUNNY   89  60  37 N10       30.02F
CLARKSVILLE    SUNNY     87  63  44 N9        30.03F
SMYRNA         MOSUNNY   93  60  33 N10       30.02F HX  92
CROSSVILLE     SUNNY     82  56  40 N12G17    30.06F
$$

TNZ061-075-076-078-094-096-097-312300-
SOUTH MIDDLE TENNESSEE

CITY           SKY/WX    TMP DP  RH WIND       PRES   REMARKS
FAYETTEVILLE   SUNNY     86  54  32 N12       30.00F
TULLAHOMA      SUNNY     84  54  34 N13       30.03S
WINCHESTER     SUNNY     86  57  37 N15       30.01S
MCMINNVILLE    SUNNY     86  63  45 N9        30.02F
COLUMBIA       SUNNY     90  63  40 N8        30.01S HX  90
SHELBYVILLE    SUNNY     90  61  37 N6        30.02S
$$

TNZ017-018-042-046-047-312300-
NORTHEAST TENNESSEE

CITY           SKY/WX    TMP DP  RH WIND       PRES   REMARKS
TRI CITIES     MOSUNNY   85  54  34 VRB5      30.01F
ELIZABETHTON   CLEAR     81  55  41 N5        30.02S
$$

TNZ012-013-036-069-073-074-312300-
CENTRAL EAST TENNESSEE

CITY           SKY/WX    TMP DP  RH WIND       PRES   REMARKS
KNOXVILLE      MOSUNNY   85  58  39 NE10      29.99F
OAK RIDGE      SUNNY     87  58  37 VRB3      30.01F
GATLINBURG     CLEAR     84  54  34 N8        29.99F
MORRISTOWN     CLEAR     82  57  42 N8        30.02F
$$

TNZ083-085-099-312300-
SOUTHEAST TENNESSEE

CITY           SKY/WX    TMP DP  RH WIND       PRES   REMARKS
CHATTANOOGA    MOSUNNY   87  59  38 N10       29.98S
$$

SKY/WX REPORTED AS FAIR MEANS FEW OR NO CLOUDS BELOW
12 THOUSAND FEET.



USA.gov is the U.S. government's official web portal to all federal, state and local government web resources and services.